Tracking 29892 objects as of 21-Nov-2024
HD Live streaming from Space Station
objects crossing your sky now

STARLINK-31812

Track STARLINK-31812 now!
10-day predictions
STARLINK-31812 is classified as:


NORAD ID: 59800
Int'l Code: 2024-093U
Perigee: 449.9 km
Apogee: 452.5 km
Inclination: 43.0 °
Period: 93.5 minutes
Semi major axis: 6822 km
RCS: Unknown
Launch date: May 18, 2024
Source: United States (US)
Launch site: AIR FORCE EASTERN TEST RANGE (AFETR)
Your satellite tracking list
Your tracking list is empty




NASA's NSSDC Master Catalog

Two Line Element Set (TLE):
1 59800U 24093U   24325.49193873  .00000540  00000-0  20193-4 0  9998
2 59800  43.0036  18.1181 0001938 280.8188  79.2450 15.40699642 30114
Source of the keplerian elements: AFSPC